User: anonymous   Login
Location: Caltech
(34.1382°N, 118.1253°W)
Time: 16:54:02
(UTC-07:00)
Language:

GPS 2-04 Rocket1 - Orbit

View from above orbital plane
View from above orbital plane
View from above satellite
View from above satellite

Ground track
Ground track

The orbit data is extracted from the following two-line orbital elements,

1 20303U 89085B   15216.80946221  .00004641  00000-0  18752-3 0  9996
2 20303 035.6328 325.4818 0122335 281.6845 221.9751 15.17595751396593
Epoch (UTC): 04 August 2015 19:25:37
Eccentricity: 0.0122335
inclination: 35.6328°
perigee height: 429 km
apogee height: 597 km
right ascension of ascending node: 325.4818°
argument of perigee: 281.6845°
revolutions per day: 15.17595751
mean anomaly at epoch: 221.9751°
orbit number at epoch: 39659

The dashed part of the orbit path shows where the satellite is in the earth's shadow,  

DLR